sat.trackr.live / text

‹ back to catalog

STARLINK-6162

NORAD 57131 · 2023-090AG

PAYLOAD ACTIVE UNKNOWN

§ Identity

Operator
Country
US
Launch date
2023-06-23
Launch site
AFETR
Launch vehicle
Mass (kg)
RCS (m²)

Purposes: comms

External: N2YO · Heavens-Above · Gunter

§ Orbital elements

Epoch: 2026-09-20T23:30:36.061920Z

Period
94.27 min
Inclination
43.0032°
Eccentricity
0.0000612
Mean motion
15.27573911 rev/d
Perigee alt
482.6 km
Apogee alt
483.5 km
Semi-major
6,861.2 km
B*
1.0374e-5
RAAN
240.1806°
Arg perigee
317.9828°
Mean anomaly
42.0977°
Rev number
18,022

§ Raw data

STARLINK-61621 57131U 23090AG  26263.97958405  .00000024  00000+0  10374-4 0  99912 57131  43.0032 240.1806 0000612 317.9828  42.0977 15.27573911180222

JSON: /api/v1/satellites/57131 · /tle

For live sub-satellite position, see the globe view (requires WebGL).

§ Visibility from observer

Set your observer location to see the next 7 days of passes ≥ 10°. The values pass through the URL so the page stays shareable.

No JS? Fill the form by hand. The geolocation button needs JavaScript.